Weather History for Alice, TX

Change the Weather History Date:

Wednesday, November 21, 2012

  Actual Average Record
Temperature  
Mean Temperature 68 °F -  
Max Temperature 84 °F 73 °F 91 °F (1996)
Min Temperature 53 °F 52 °F 39 °F (2006)
Cooling Degree Days 4    
Growing Degree Days 18 (Base 50)    
Moisture  
Dew Point 55 °F    
Average Humidity 82    
Maximum Humidity 100    
Minimum Humidity 28    
Precipitation  
Precipitation 0.00 in - - ()
Sea Level Pressure  
Sea Level Pressure 30.19 in    
Wind  
Wind Speed 3 mph (NNE)    
Max Wind Speed 14 mph    
Max Gust Speed 25 mph    
Visibility 5 miles    
Events Fog    
Averages and records for this station are not official NWS values.
T = Trace of Precipitation, MM = Missing Value Source: NWS Daily Summary

Daily Weather History Graph

Daily Weather History Graph

Search for Another Location

Airport:

Trip Planner

Search our weather history database for the weather conditions in past years. The results will help you decide how hot, cold, wet, or windy it might be!

Date:

Astronomy

Nov. 21, 2012 Rise Set
Actual Time 6:58 AM CST 5:37 PM CST
Civil Twilight 6:33 AM CST 6:02 PM CST
Nautical Twilight 6:04 AM CST 6:31 PM CST
Astronomical Twilight 5:36 AM CST 6:59 PM CST
Moon 1:26 PM CST (11/21) 12:50 AM CST (11/21)
Length of Visible Light 11h 29m
Length of Day
10h 39m
First Quarter, 62% of the Moon is Illuminated
Nov 21
First Quarter
Nov 28
Full
Dec 6
Last Quarter
Dec 13
New
Dec 19
First Quarter

Hourly Weather History & Observations

Time (CST) Temp. Heat Index Dew Point Humidity Pressure Visibility Wind Dir Wind Speed Gust Speed Precip Events Conditions
12:53 AM 63.0 °F - 60.1 °F 90% 30.17 in 10.0 mi West 3.5 mph - N/A   Clear
1:53 AM 59.0 °F - 57.0 °F 93% 30.18 in 8.0 mi Calm Calm - N/A   Clear
2:15 AM 57.2 °F - 55.4 °F 94% 30.18 in 2.0 mi Calm Calm - N/A   Clear
2:25 AM 59.0 °F - 55.4 °F 88% 30.18 in 8.0 mi NNW 3.5 mph - N/A   Clear
2:53 AM 57.9 °F - 55.9 °F 93% 30.17 in 6.0 mi Calm Calm - N/A   Clear
3:53 AM 57.9 °F - 55.0 °F 90% 30.18 in 6.0 mi NNW 3.5 mph - N/A   Clear
4:53 AM 57.0 °F - 55.0 °F 93% 30.18 in 4.0 mi Calm Calm - N/A   Clear
5:00 AM 55.4 °F - 55.4 °F 100% 30.19 in 1.2 mi Calm Calm - N/A   Clear
5:02 AM 55.4 °F - 53.6 °F 94% 30.19 in 0.8 mi Calm Calm - N/A   Mist
5:06 AM 55.4 °F - 53.6 °F 94% 30.19 in 0.2 mi NW 3.5 mph - N/A Fog Fog
5:15 AM 55.4 °F - 53.6 °F 94% 30.19 in 0.8 mi Calm Calm - N/A   Mist
5:17 AM 55.4 °F - 53.6 °F 94% 30.19 in 1.2 mi Calm Calm - N/A   Partly Cloudy
5:20 AM 55.4 °F - 53.6 °F 94% 30.19 in 3.0 mi Calm Calm - N/A   Partly Cloudy
5:26 AM 55.4 °F - 53.6 °F 94% 30.19 in 1.8 mi North 3.5 mph - N/A   Partly Cloudy
5:28 AM 55.4 °F - 53.6 °F 94% 30.19 in 0.8 mi North 3.5 mph - N/A   Mist
5:36 AM 55.4 °F - 53.6 °F 94% 30.19 in 0.5 mi North 3.5 mph - N/A Fog Fog
5:41 AM 53.6 °F - 53.6 °F 100% 30.19 in 1.0 mi Calm Calm - N/A   Clear
5:53 AM 54.0 °F - 53.1 °F 97% 30.19 in 1.0 mi Calm Calm - N/A   Clear
6:06 AM 55.4 °F - 53.6 °F 94% 30.20 in 3.0 mi Calm Calm - N/A   Clear
6:11 AM 55.4 °F - 53.6 °F 94% 30.20 in 1.8 mi NW 3.5 mph - N/A   Clear
6:16 AM 55.4 °F - 53.6 °F 94% 30.20 in 0.5 mi NNW 3.5 mph - N/A Fog Fog
6:25 AM 55.4 °F - 53.6 °F 94% 30.21 in 1.0 mi WNW 3.5 mph - N/A   Clear
6:30 AM 55.4 °F - 53.6 °F 94% 30.21 in 3.0 mi NW 3.5 mph - N/A   Clear
6:51 AM 55.4 °F - 53.6 °F 94% 30.21 in 1.5 mi NNW 3.5 mph - N/A   Clear
6:53 AM 55.0 °F - 54.0 °F 96% 30.21 in 0.5 mi NNW 3.5 mph - N/A Fog Fog
7:08 AM 55.4 °F - 53.6 °F 94% 30.22 in 1.8 mi WNW 4.6 mph - N/A   Clear
7:14 AM 55.4 °F - 53.6 °F 94% 30.22 in 3.0 mi West 3.5 mph - N/A   Clear
7:53 AM 60.1 °F - 57.9 °F 93% 30.22 in 6.0 mi NW 3.5 mph - N/A   Clear
8:53 AM 66.9 °F - 61.0 °F 81% 30.23 in 9.0 mi Calm Calm - N/A   Clear
9:53 AM 73.9 °F - 62.1 °F 66% 30.25 in 10.0 mi SSE 4.6 mph - N/A   Clear
10:53 AM 78.1 °F - 57.9 °F 50% 30.24 in 10.0 mi Variable 6.9 mph - N/A   Clear
11:53 AM 79.0 °F - 55.0 °F 44% 30.22 in 10.0 mi ESE 9.2 mph - N/A   Clear
12:53 PM 82.0 °F - 48.9 °F 31% 30.18 in 10.0 mi SE 8.1 mph - N/A   Partly Cloudy
1:53 PM 84.0 °F - 48.0 °F 28% 30.15 in 10.0 mi ESE 9.2 mph 25.3 mph N/A   Partly Cloudy
2:53 PM 82.9 °F 81.8 °F 53.1 °F 36% 30.14 in 10.0 mi East 13.8 mph 21.9 mph N/A   Partly Cloudy
3:53 PM 80.1 °F 79.9 °F 53.1 °F 39% 30.14 in 10.0 mi SE 11.5 mph - N/A   Scattered Clouds
4:53 PM 78.1 °F - 54.0 °F 43% 30.14 in 10.0 mi SE 11.5 mph - N/A   Clear
5:53 PM 73.0 °F - 57.0 °F 57% 30.16 in 10.0 mi SE 11.5 mph - N/A   Clear
6:53 PM 71.1 °F - 57.9 °F 63% 30.17 in 10.0 mi ESE 8.1 mph - N/A   Clear
7:53 PM 69.1 °F - 59.0 °F 70% 30.18 in 10.0 mi East 8.1 mph - N/A   Clear
8:53 PM 64.9 °F - 57.9 °F 78% 30.19 in 10.0 mi ESE 4.6 mph - N/A   Clear
9:53 PM 63.0 °F - 57.0 °F 81% 30.19 in 10.0 mi SSE 3.5 mph - N/A   Clear
10:53 PM 60.1 °F - 57.0 °F 90% 30.18 in 10.0 mi SSE 3.5 mph - N/A   Clear
11:43 PM 57.2 °F - 55.4 °F 94% 30.17 in 1.8 mi Calm Calm - N/A   Clear
11:53 PM 57.9 °F - 55.0 °F 90% 30.16 in 0.8 mi Calm Calm - N/A   Clear